Weather History for International Falls, MN

Change the Weather History Date:

Monday, April 22, 2013

  Actual Average Record
Temperature  
Mean Temperature 33 °F 43 °F  
Max Temperature 39 °F 55 °F 81 °F (1990)
Min Temperature 27 °F 30 °F 17 °F (2004)
Degree Days  
Heating Degree Days 32 22  
Month to date heating degree days 825 607  
Since 1 July heating degree days 9894 9473  
Cooling Degree Days 0 0  
Month to date cooling degree days 0 0  
Year to date cooling degree days 0 0  
Moisture  
Dew Point 22 °F    
Average Humidity 70    
Maximum Humidity 92    
Minimum Humidity 48    
Precipitation  
Precipitation 0.00 in 0.06 in 0.81 in (2007)
Month to date precipitation 1.47 1.03  
Year to date precipitation 6.28 3.17  
Snow  
Snow 0.00 in 0.20 in 4.00 in (1992)
Month to date snowfall 13.6 5.4  
Since 1 July snowfall 98.6 69.8  
Snow Depth 18.00 in    
Sea Level Pressure  
Sea Level Pressure 30.23 in    
Wind  
Wind Speed 7 mph (WNW)    
Max Wind Speed 13 mph    
Max Gust Speed 16 mph    
Visibility 10 miles    
Events      
T = Trace of Precipitation, MM = Missing Value Source: NWS Daily Summary

Daily Weather History Graph

Daily Weather History Graph

Search for Another Location

Airport:

Trip Planner

Search our weather history database for the weather conditions in past years. The results will help you decide how hot, cold, wet, or windy it might be!

Date:

Astronomy

Apr. 22, 2013 Rise Set
Actual Time 6:09 AM CDT 8:15 PM CDT
Civil Twilight 5:35 AM CDT 8:49 PM CDT
Nautical Twilight 4:53 AM CDT 9:32 PM CDT
Astronomical Twilight 4:06 AM CDT 10:19 PM CDT
Moon 4:51 PM CDT (4/22) 4:20 AM CDT (4/22)
Length of Visible Light 15h 14m
Length of Day
14h 06m
Waxing Gibbous, 88% of the Moon is Illuminated
Apr 22
Waxing Gibbous
Apr 25
Full
May 2
Last Quarter
May 9
New
May 17
First Quarter

Hourly Weather History & Observations

Time (CDT) Temp. Windchill Dew Point Humidity Pressure Visibility Wind Dir Wind Speed Gust Speed Precip Events Conditions
12:55 AM 32.0 °F 24.8 °F 30.0 °F 92% 30.09 in 10.0 mi West 8.1 mph - N/A   Scattered Clouds
1:55 AM 30.9 °F 24.3 °F 28.0 °F 89% 30.10 in 10.0 mi West 6.9 mph - N/A   Clear
2:55 AM 30.0 °F 22.4 °F 27.0 °F 88% 30.12 in 10.0 mi West 8.1 mph - N/A   Clear
3:55 AM 28.9 °F 21.1 °F 27.0 °F 92% 30.15 in 10.0 mi West 8.1 mph - N/A   Clear
4:55 AM 28.0 °F 18.6 °F 25.0 °F 88% 30.18 in 10.0 mi West 10.4 mph - N/A   Clear
5:55 AM 27.0 °F 20.5 °F 24.1 °F 89% 30.21 in 10.0 mi West 5.8 mph - N/A   Clear
6:21 AM 26.6 °F 17.5 °F 24.8 °F 93% 30.16 in 10.0 mi WNW 9.2 mph - N/A   Mostly Cloudy
6:55 AM 27.0 °F 17.3 °F 23.0 °F 85% 30.23 in 10.0 mi WNW 10.4 mph - N/A   Scattered Clouds
7:55 AM 28.0 °F 20.0 °F 23.0 °F 81% 30.26 in 10.0 mi West 8.1 mph - N/A   Clear
8:55 AM 28.0 °F 17.0 °F 21.9 °F 78% 30.27 in 10.0 mi NW 13.8 mph 19.6 mph N/A   Mostly Cloudy
9:36 AM 28.4 °F 20.4 °F 21.2 °F 74% 30.22 in 10.0 mi NW 8.1 mph - N/A   Mostly Cloudy
9:55 AM 30.0 °F 23.2 °F 21.9 °F 72% 30.27 in 10.0 mi WNW 6.9 mph - N/A   Mostly Cloudy
10:55 AM 30.9 °F 21.2 °F 21.9 °F 69% 30.29 in 10.0 mi WNW 12.7 mph - N/A   Mostly Cloudy
11:08 AM 30.2 °F 21.3 °F 21.2 °F 69% 30.24 in 10.0 mi WNW 10.4 mph - N/A   Scattered Clouds
12:55 PM 33.1 °F 24.9 °F 21.0 °F 61% 30.30 in 10.0 mi West 10.4 mph - N/A   Scattered Clouds
1:55 PM 34.0 °F 29.8 °F 21.0 °F 59% 30.30 in 10.0 mi West 4.6 mph - N/A   Clear
2:55 PM 35.1 °F 30.1 °F 19.9 °F 54% 30.29 in 10.0 mi West 5.8 mph - N/A   Clear
3:55 PM 37.0 °F 32.4 °F 19.9 °F 50% 30.28 in 10.0 mi NW 5.8 mph - N/A   Partly Cloudy
4:55 PM 37.9 °F 31.5 °F 19.0 °F 47% 30.27 in 10.0 mi NW 9.2 mph - N/A   Clear
5:55 PM 37.0 °F 29.3 °F 19.0 °F 48% 30.26 in 10.0 mi NNW 11.5 mph - N/A   Scattered Clouds
6:55 PM 37.0 °F 33.3 °F 19.9 °F 50% 30.27 in 10.0 mi NE 4.6 mph - N/A   Mostly Cloudy
7:55 PM 36.0 °F 33.3 °F 21.0 °F 55% 30.28 in 10.0 mi WNW 3.5 mph - N/A   Overcast
8:55 PM 33.1 °F 27.7 °F 19.9 °F 59% 30.28 in 10.0 mi WNW 5.8 mph - N/A   Clear
9:55 PM 30.9 °F 26.2 °F 19.9 °F 64% 30.29 in 10.0 mi NW 4.6 mph - N/A   Clear
10:55 PM 30.0 °F 25.2 °F 19.9 °F 66% 30.28 in 10.0 mi NNW 4.6 mph - N/A   Clear
11:55 PM 30.9 °F 23.5 °F 17.1 °F 57% 30.21 in 10.0 mi NNW 8.1 mph - N/A   Overcast